Regional Weather Roundup
Issued by NWS Charleston, SC

Current Version | Previous Version | Graphics & Text | Print | Product List | Glossary On
Versions: 1 2 3 4 5 6 7 8 9 10 11 12 13 14 15 16 17 18 19 20 21 22 23 24 25 26 27 28 29 30 31 32 33 34 35 36 37 38 39 40 41 42 43 44 45 46 47 48 49 50
000 ASUS42 KCHS 231627 RWRCHS REGIONAL WEATHER ROUNDUP NATIONAL WEATHER SERVICE CHARLESTON SC 1200 PM EDT TUE MAY 23 2017 NOTE: "FAIR" INDICATES FEW OR NO CLOUDS BELOW 12,000 FEET WITH NO SIGNIFICANT WEATHER AND/OR OBSTRUCTIONS TO VISIBILITY. NOT ALL STATIONS ARE QUALITY CONTROLLED. USE DATA WITH CAUTION... ESPECIALLY DEWPOINT OBSERVATIONS. SCZ027-030-031-034>040-042>050-231700- ...SOUTHEAST SOUTH CAROLINA... CITY SKY/WX TMP DP RH WIND PRES REMARKS N CHARLESTON PTSUNNY 78 70 76 SW14 29.83F WATERFRONT PRK N/A 76 73 90 SW7 29.82S JOHNS ISLAND CLOUDY 79 73 83 SW9G16 29.83F PINOPOLIS N/A 73 72 94 SW5 29.76S MONCKS CORNER CLOUDY 77 72 83 SW7 29.81F SUMMERVILLE PTSUNNY 79 72 78 SW8 29.82F BEAUFORT MCAS CLOUDY 81 75 82 SW9 29.82F BEAUFORT ARPT PTSUNNY 79 72 78 SW7 29.82F HAZE HILTON HEAD IS PTSUNNY 81 73 78 S12G17 29.85F WALTERBORO CLOUDY 79 70 73 SW12G18 29.83S ALLENDALE CLOUDY 73 72 94 CALM 29.81F ...SOUTHERN MIDLANDS AND PEE DEE... CITY SKY/WX TMP DP RH WIND PRES REMARKS GEORGETOWN PTSUNNY 77 72 83 SW9 29.84F KINGSTREE PTSUNNY 75 70 83 S7 29.82F ORANGEBURG LGT RAIN 74 71 91 SW10 29.82F BARNWELL LGT RAIN 70 70 100 W3 29.84S AIKEN RAIN 70 68 94 SW6 29.86F MANNING CLOUDY 73 72 94 SW7G20 29.81F COLUMBIA RAIN 72 69 90 SW9 29.81S FOG SUMTER NOT AVBL FLORENCE CLOUDY 74 71 91 S7 29.81S MYRTLE BEACH CLOUDY 79 72 78 W12 29.85S N MYRTLE BEACH LGT RAIN 77 71 82 W8 29.82F $$ GAZ063-065-086>088-099>101-113>116-118-119-134>141-150-231700- ...SOUTHEAST GEORGIA... CITY SKY/WX TMP DP RH WIND PRES REMARKS SAVANNAH ARPT LGT RAIN 78 71 79 SW10 29.84F HUNTER AAF NOT AVBL FORT STEWART NOT AVBL STATESBORO CLOUDY 76 76 100 SW5 29.83F SYLVANIA CLOUDY 76 74 95 W7 29.84S CLAXTON PTSUNNY N/A N/A N/A S5 29.84S ...CSRA...CENTRAL AND FAR SOUTHEAST GEORGIA... CITY SKY/WX TMP DP RH WIND PRES REMARKS THOMSON LGT RAIN 71 69 94 W7 29.88F AUGUSTA-BUSH LGT RAIN 72 69 90 SW8 29.83S AUGUSTA-DANIEL LGT RAIN 72 67 84 SW5 29.84S SWAINSBORO CLOUDY 72 70 94 CALM 29.85F VIDALIA CLOUDY 77 73 88 S8 29.83F EASTMAN RAIN 72 72 100 NE3 29.85F HAZLEHURST CLOUDY 78 75 90 S8 29.81F ALMA CLOUDY 78 72 81 S7 29.84F WAYCROSS PTSUNNY 83 77 82 SW10 29.83F HX 91 JESUP PTSUNNY 79 72 78 SW3 29.84F BAXLEY PTSUNNY 79 79 100 SW9G16 29.83F BRUNSWICK MOSUNNY 79 73 83 SW8 29.86F SAINT SIMONS CLOUDY 80 69 69 SW14 29.86F $$ SCZ027-028-034-036>038-045-046-048>050-GAZ119-141-231700- ...LAKE AND SUPPLEMENTAL COASTAL OBSERVATIONS... STATION/POSITION TIME TEMP WIND PRES WAVE SWELL AIR SEA DIR/SP/G HT/PER HT/PER/DIR (UTC) (F) (DEG/KT/KT) (MB) (FT/S) (FT/S/D) WINYAH BAY 1530 75 260/ 6 1010.0F LAKE MURRAY 1620 71 250/ 8/ 11 1008.8 ACE BASIN NERRS 1530 78 230/ 3 1011.0S FORT PULASKI 1600 80 230/ 9/ 16 1010.6 SAPELO ISLAND 1600 80 230/ 13 1011.0 $$ ANZ835-935-AMZ111-154-330-350-352-354-370-450-454-472-231700- ...C-MAN AND BUOY OBSERVATIONS... STATION/POSITION TIME TEMP WIND PRES WAVE SWELL AIR SEA DIR/SP/G HT/PER HT/PER/DIR (UTC) (F) (DEG/KT/KT) (MB) (FT/S) (FT/S/D) BUOY 41004 1610 77 78 220/ 16/ 19 1010.6 BUOY 41008 1550 78 78 210/ 16/ 17 1010.8F 4/ 6 2/ 90/ 7 FOLLY BEACH CMAN 1600 77 220/ 11/ 13 1011.0F CAPERS NEARSHORE 1608 79 76 230/ 14/ 17 1010.2F FRIPP NEARSHORE 1608 78 79 210/ 16/ 21 1010.2F STATION/POSITION TIME TEMP WIND PRES WAVE SWELL AIR SEA DIR/SP/G HT/PER HT/PER/DIR (UTC) (F) (DEG/KT/KT) (MB) (FT/S) (FT/S/D) 5E ST. MARYS GA 1600 79 N/A 3/ 5 FRYING PAN BUOY 1610 78 77 230/ 16/ 19 1010.5 BUOY 41025 1550 75 77 230/ 12/ 17 1011.5F 4/ 5 2/190/ 5 CAPE LOOKOUT NC 1600 74 200/ 15/ 19 1010.2F BUOY 41002 1550 76 76 200/ 17/ 21 1015.2F 4/ 5 2/120/13 BUOY 41010 1610 79 79 190/ 14/ 17 1014.6 ST AUGUSTINE FL 1600 82 79 200/ 13/ 18 1012.8F $$

USA.gov is the U.S. government's official web portal to all federal, state and local government web resources and services.